shoulder
new_line
new_line
first
second
third
Al di la della Luna; Beyond the Moon; Astrophotography; Astrofotografia; Danilo Pivato
 
 
         
         
1989

Orbital Elements

Epoch 1989 Oct 08.0 TT = JDT 2447807.5
T 1989 November 11.91625212 TT                                                                JPL
q   0.64233043            (2000.0)                                    P               Q
n   7.91238250     Peri.  150.57110          -0.00000000     +0.00000000
a   -11577.048      Node  275.51007          -0.00000000    +0.00000000
e   1.00005548     Incl.     90.145947         -0.00000000     -0.00000000
 
 
         
         
1989.10.01
1989.10.22
         
 
 
Alba a Mt. Autore 1989.11.01 con Gorelli e
Alba a Mt. Autore 1989.11.01 io & Newton
Alba a Mt. Autore 1989.11.01
 
         
         
         
         
         
         

 

       
 
Since: 01/01/2004
 
       
 
Since: 01/11/2010